THOR ABLESTAR DEB, 210

Orbit data source: Space-Track

THOR ABLESTAR DEB, 210 is space debris in LEO originally from a launch on Thu, 29 Jun 1961 UTC launched from the Air Force Eastern Test Range (AFETR). Debris objects in space refer to the collection of defunct objects orbiting the Earth. Examples of debris include non-operational satellites, rocket bodies, and fragments generated from explosions, collisions, or faulty payload assembly.

Loading next visibility...
Identifier
210, 1961-015BE
Orbit
LEO
Country
Flag of USUS
Related business
Manufacturer
Unknown
Mission
Spacecraft
Bus & Motor
Unknown
Mass
Unknown
Launch date (UTC)
1961-06-29 (64 years ago)
Launch vehicle
Unknown
Launch site
Air Force Eastern Test Range (AFETR)
Object type
Payload
Rocket body
Debris
Shape & HBR
Unknown
Radar Cross Section
Medium (>0.1 m² and <1 m²)

Expand to show TLE details & history
Last TLE update: 16 hours ago

TLE from 16 hours ago
0 THOR ABLESTAR DEB
1 00210U 61015BE  25261.15799743  .00000393  00000-0  38863-3 0  9993
2 00210  66.4580 316.8137 0040371 134.5942 225.8440 13.88676950227623
Epoch: 2025-09-18T03:47Z
TLE epoch observation values (Epoch: 2025-09-18T03:47:30.977Z)
Latitude
0.00003°
Longitude
-97.38897°
Altitude
955.944 km
Speed
7.364 km/s
True Right ascension
21h 07m 15s
True Declination
0° 00' 00"
Sunlit
Object was in full shadow at epoch
Visualization orbit readout
Latitude
Unknown
Longitude
Unknown
Altitude
Unknown
Speed
Unknown
Apparent Right ascension
Unknown
Apparent Declination
Unknown
Sunlit
N/A
Visualization observer readout
Local Sidereal Time
12:09:26
Azimuth
Unknown
Elevation
Unknown
Doppler factor
Unknown
Orbital elements
Apogee altitude
961.216 km
Perigee altitude
902.195 km
Semi-major axis
7,309.842 km
Eccentricity
0.00404
Inclination
66.458°
RAAN
316.8137°
Arg. of periapsis
134.5942°
True anomaly
225.51326°
Mean anomaly
225.844°
Eccentric anomaly
225.67851°
Mean motion
3.47281 °/min
Orbital period
103.66 mins
BSTAR
0.00038863
Loading maneuver chart data...
Computing Atmospheric mass density...

Documentation

Showing up to 5 results
|